Date String (YYYY-MM-DD hh:mm:ss) UTC,Instrument flags,Ambient pressure (hPa),Sample flow (lpm),Bypass flow (lpm),Sample temperature (°C),Ambient temperature (°C),ASC tube jacket temperature (°C),LED temperature (°C),Box temperature (°C),Sample RH (%),Span deviation,Mass concentration (μg/m³),Mass concentration (μg/m³),Mass concentration (μg/m³)
DateTimeUTC,F1_M11,P_M11,Q1_M11,Q2_M11,T1_M11,T2_M11,T3_M11,T4_M11,T5_M11,U1_M11,ZSPAN_M11,X0_M11,X2_M11,X1_M11
2022-02-04 12:00:00,,0833.2,5.00,0.00,22.1,22.6,00.0,31.0,23.9,04.8,0000.0,0004.09,0002.24,0002.02
2022-02-04 12:01:00,,0833.2,5.00,0.00,22.0,22.2,00.0,31.0,23.7,04.8,0000.0,0004.08,0002.21,0001.97
2022-02-04 12:02:00,,0833.2,5.00,0.00,21.9,21.8,00.0,30.9,23.4,04.9,0000.0,0004.05,0002.17,0001.93
2022-02-04 12:03:00,,0833.2,5.01,0.00,21.8,21.4,00.0,30.9,23.3,04.9,0000.0,0003.98,0002.12,0001.89
2022-02-04 12:04:00,,0833.3,4.99,0.00,21.8,21.2,00.0,30.9,23.3,05.0,0000.0,0003.93,0002.08,0001.86
2022-02-04 12:05:00,,0833.3,5.01,0.00,21.8,21.1,00.0,30.9,23.2,05.0,0000.0,0004.01,0002.10,0001.86
2022-02-04 12:06:00,,0833.3,5.00,0.00,21.8,21.5,00.0,30.9,23.4,05.0,0000.0,0004.20,0002.22,0001.94
2022-02-04 12:07:00,,0833.4,5.01,0.00,21.9,22.3,00.0,30.9,23.6,04.9,0000.0,0004.33,0002.36,0002.07
2022-02-04 12:08:00,,0833.4,5.00,0.00,22.0,23.0,00.0,30.9,23.9,04.9,0000.0,0004.47,0002.47,0002.18
2022-02-04 12:09:00,,0833.4,4.99,0.00,22.1,22.8,00.0,30.9,23.9,04.9,0000.0,0004.42,0002.61,0002.32
2022-02-04 12:10:00,,0833.4,5.01,0.00,22.1,22.5,00.0,31.0,23.9,05.0,0000.0,0003.68,0002.91,0002.58
2022-02-04 12:11:00,,0833.4,5.00,0.00,22.1,22.0,00.0,31.0,23.8,05.1,0000.0,0004.26,0003.24,0003.00
2022-02-04 12:12:00,,0833.4,4.99,0.00,22.0,21.7,00.0,31.0,23.7,05.1,0000.0,0004.76,0003.47,0003.28
2022-02-04 12:13:00,,0833.5,5.00,0.00,22.0,21.4,00.0,31.0,23.6,05.2,0000.0,0005.39,0003.72,0003.54
2022-02-04 12:14:00,,0833.5,4.99,0.00,22.0,21.3,00.0,30.9,23.5,05.3,0000.0,0006.02,0004.00,0003.80
2022-02-04 12:15:00,,0833.5,5.01,0.00,21.9,21.2,00.0,30.9,23.5,05.3,0000.0,0006.61,0004.29,0004.10
2022-02-04 12:16:00,,0833.6,5.00,0.00,21.9,21.1,00.0,30.9,23.5,05.4,0000.0,0007.16,0004.55,0004.35
2022-02-04 12:17:00,,0833.6,4.99,0.00,21.9,21.4,00.0,30.9,23.5,05.4,0000.0,0007.45,0004.75,0004.56
2022-02-04 12:18:00,,0833.6,5.00,0.00,22.0,22.1,00.0,30.9,23.7,05.3,0000.0,0007.68,0004.92,0004.74
2022-02-04 12:19:00,,0833.6,5.01,0.00,22.1,22.8,00.0,31.0,24.0,05.3,0000.0,0007.93,0005.09,0004.89
2022-02-04 12:20:00,,0833.6,4.99,0.00,22.3,23.2,00.0,31.0,24.1,05.1,0000.0,0008.15,0005.22,0005.01
2022-02-04 12:21:00,,0833.6,5.00,0.00,22.3,22.9,00.0,31.1,24.1,05.1,0000.0,0008.13,0005.22,0005.02
2022-02-04 12:22:00,,0833.6,5.00,0.00,22.3,22.6,00.0,31.1,24.0,05.1,0000.0,0008.11,0005.19,0004.99
2022-02-04 12:23:00,,0833.6,5.00,0.00,22.2,22.1,00.0,31.1,23.8,05.1,0000.0,0008.20,0005.18,0004.97
2022-02-04 12:24:00,,0833.7,5.01,0.00,22.1,21.8,00.0,31.1,23.7,05.1,0000.0,0008.11,0005.12,0004.90
2022-02-04 12:25:00,,0833.7,5.00,0.00,22.1,21.6,00.0,31.0,23.6,05.1,0000.0,0007.87,0004.95,0004.74
2022-02-04 12:26:00,,0833.7,4.99,0.00,22.0,21.4,00.0,31.0,23.5,05.0,0000.0,0007.64,0004.75,0004.55
2022-02-04 12:27:00,,0833.7,5.01,0.00,22.0,21.2,00.0,31.0,23.5,05.0,0000.0,0007.36,0004.52,0004.32
2022-02-04 12:28:00,,0833.8,4.99,0.00,21.9,21.4,00.0,31.0,23.5,05.1,0000.0,0006.88,0004.28,0004.10
2022-02-04 12:29:00,,0833.9,5.00,0.00,22.0,22.1,00.0,31.0,23.7,05.1,0000.0,0007.40,0004.16,0003.96
2022-02-04 12:30:00,,0834.0,4.99,0.00,22.2,22.9,00.0,31.1,24.0,05.1,0000.0,0007.35,0004.05,0003.86
2022-02-04 12:31:00,,0834.0,5.02,0.00,22.3,23.0,00.0,31.1,24.1,05.0,0000.0,0007.58,0003.97,0003.79
2022-02-04 12:32:00,,0834.1,4.99,0.00,22.3,22.7,00.0,31.1,24.1,05.0,0000.0,0008.07,0003.93,0003.75
2022-02-04 12:33:00,,0834.1,5.01,0.00,22.3,22.4,00.0,31.1,24.0,04.9,0000.0,0007.87,0003.79,0003.62
2022-02-04 12:34:00,,0834.0,5.00,0.00,22.2,22.1,00.0,31.1,24.0,04.9,0000.0,0007.53,0003.58,0003.44
2022-02-04 12:35:00,,0834.0,5.00,0.00,22.2,21.9,00.0,31.1,23.9,04.9,0000.0,0007.42,0003.44,0003.29
2022-02-04 12:36:00,,0834.0,5.01,0.00,22.2,21.7,00.0,31.1,23.8,04.9,0000.0,0007.48,0003.41,0003.25
2022-02-04 12:37:00,,0834.1,4.99,0.00,22.1,21.5,00.0,31.1,23.7,05.0,0000.0,0007.54,0003.45,0003.27
2022-02-04 12:38:00,,0834.1,5.00,0.00,22.0,21.3,00.0,31.1,23.6,05.1,0000.0,0007.58,0003.45,0003.26
2022-02-04 12:39:00,,0834.1,5.01,0.00,22.0,21.2,00.0,31.1,23.5,05.1,0000.0,0007.49,0003.38,0003.19
2022-02-04 12:40:00,,0834.1,4.99,0.00,22.0,21.8,00.0,31.1,23.6,05.1,0000.0,0006.49,0003.24,0003.02
2022-02-04 12:41:00,,0834.2,5.00,0.00,22.2,22.6,00.0,31.1,23.9,05.1,0000.0,0005.94,0003.03,0002.73
2022-02-04 12:42:00,,0834.3,5.00,0.00,22.3,23.2,00.0,31.1,24.1,05.0,0000.0,0004.86,0002.76,0002.46
2022-02-04 12:43:00,,0834.3,4.99,0.00,22.3,22.9,00.0,31.2,24.1,05.0,0000.0,0003.74,0002.57,0002.28
2022-02-04 12:44:00,,0834.4,5.00,0.00,22.3,22.5,00.0,31.2,23.9,04.9,0000.0,0003.64,0002.48,0002.16
2022-02-04 12:45:00,,0834.4,5.01,0.00,22.1,22.0,00.0,31.1,23.7,04.9,0000.0,0003.63,0002.50,0002.18
2022-02-04 12:46:00,,0834.4,5.00,0.00,22.0,21.7,00.0,31.1,23.5,04.9,0000.0,0003.70,0002.55,0002.25
2022-02-04 12:47:00,,0834.4,5.01,0.00,21.9,21.4,00.0,31.1,23.3,04.9,0000.0,0003.68,0002.58,0002.29
2022-02-04 12:48:00,,0834.4,4.99,0.00,21.8,21.1,00.0,31.1,23.2,04.9,0000.0,0003.62,0002.54,0002.27
2022-02-04 12:49:00,,0834.4,5.00,0.00,21.8,21.2,00.0,31.0,23.2,04.9,0000.0,0003.56,0002.54,0002.28
2022-02-04 12:50:00,,0834.4,5.01,0.00,21.9,22.0,00.0,31.0,23.5,04.9,0000.0,0003.69,0002.66,0002.38
2022-02-04 12:51:00,,0834.4,5.00,0.00,22.0,22.7,00.0,31.1,23.8,05.0,0000.0,0003.81,0002.82,0002.56
2022-02-04 12:52:00,,0834.4,5.01,0.00,22.2,23.1,00.0,31.1,24.0,05.0,0000.0,0004.06,0003.10,0002.85
2022-02-04 12:53:00,,0834.4,4.99,0.00,22.2,22.7,00.0,31.1,24.0,05.1,0000.0,0004.49,0003.31,0003.16
2022-02-04 12:54:00,,0834.4,5.00,0.00,22.2,22.3,00.0,31.1,23.9,05.2,0000.0,0004.98,0003.55,0003.39
2022-02-04 12:55:00,,0834.4,5.01,0.00,22.1,21.9,00.0,31.1,23.8,05.3,0000.0,0005.71,0003.87,0003.68
2022-02-04 12:56:00,,0834.4,5.01,0.00,22.1,21.7,00.0,31.1,23.7,05.3,0000.0,0006.22,0004.10,0003.93
2022-02-04 12:57:00,,0834.4,5.00,0.00,22.0,21.5,00.0,31.1,23.6,05.4,0000.0,0006.80,0004.32,0004.14
2022-02-04 12:58:00,,0834.4,4.99,0.00,22.0,21.4,00.0,31.0,23.6,05.4,0000.0,0007.32,0004.54,0004.35
2022-02-04 12:59:00,,0834.3,5.02,0.00,22.0,21.3,00.0,31.0,23.5,05.4,0000.0,0007.54,0004.73,0004.55
